Location: *
(51.8167°N, 12.5000°E)
Time: 22:14:45
(UTC+00:00)

Cosmos 2333 Rocket - Pass Details

Date: 16 September 2019
Orbit: 840 x 862 km, 70.8° (Epoch: 15 October)

Event Time Altitude Azimuth Distance (km) Brightness Sun altitude
Rises 19:55:49 0° 320° (NW) 3,423 6.7 -22.6°
Reaches altitude 10° 19:58:55 10° 303° (WNW) 2,486 5.8 -23.0°
Maximum altitude 20:02:49 19° 260° (W) 1,910 4.5 -23.5°
Drops below altitude 10° 20:06:43 10° 216° (SW) 2,484 4.6 -23.9°
Enters shadow 20:08:30 - 205° (SSW) 2,995 4.9 -24.2°
